Weather History for Paganella, Italy

Change the Weather History Date:

Friday, July 12, 2013

  Actual Average Record
Temperature  
Mean Temperature 52 °F -  
Max Temperature 59 °F 57 °F 66 °F (2010)
Min Temperature 46 °F 43 °F 33 °F (2000)
Degree Days  
Heating Degree Days 12    
Growing Degree Days 2 (Base 50)    
Moisture  
Dew Point 48 °F    
Average Humidity 83    
Maximum Humidity 100    
Minimum Humidity 65    
Precipitation  
Precipitation 0.00 in 0.12 in - ()
Sea Level Pressure  
Sea Level Pressure 30.19 in    
Wind  
Wind Speed 7 mph ()    
Max Wind Speed 34 mph    
Max Gust Speed -    
Visibility 5.3 miles    
Events Fog , Rain    
Averages and records for this station are not official NWS values.
T = Trace of Precipitation, MM = Missing Value Source: Averaged Metar Reports

Daily Weather History Graph

Daily Weather History Graph

Search for Another Location

Airport:

Trip Planner

Search our weather history database for the weather conditions in past years. The results will help you decide how hot, cold, wet, or windy it might be!

Date:

Astronomy

Jul. 12, 2013 Rise Set
Actual Time 5:36 AM CEST 9:05 PM CEST
Civil Twilight 4:59 AM CEST 9:43 PM CEST
Nautical Twilight 4:09 AM CEST 10:32 PM CEST
Astronomical Twilight 3:04 AM CEST 11:36 PM CEST
Moon 9:53 AM CEST (7/12) 10:49 PM CEST (7/12)
Length of Visible Light 16h 44m
Length of Day
15h 29m
Waxing Crescent, 15% of the Moon is Illuminated
Jul 12
Waxing Crescent
Jul 16
First Quarter
Jul 22
Full
Jul 29
Last Quarter
Aug 6
New

Hourly Weather History & Observations

Time (CEST) Temp. Dew Point Humidity Pressure Visibility Wind Dir Wind Speed Gust Speed Precip Events Conditions
12:55 AM 51.8 °F 51.8 °F 100% 30.18 in 0.0 mi South 13.8 mph - N/A Fog Fog
1:55 AM 48.2 °F 42.8 °F 82% 30.18 in 6.2 mi North 9.2 mph - N/A Rain Light Rain
2:00 AM 48 °F 43 °F 75%  in 2 mi North 9.2 mph - - Rain Light Rain
2:55 AM 48.2 °F 42.8 °F 82% 30.18 in 6.2 mi North 9.2 mph - N/A   Partly Cloudy
3:00 AM 48 °F 42 °F 72%  in 2 mi North 9.2 mph - - Rain Light Rain
3:55 AM 46.4 °F 42.8 °F 87% 30.18 in - Calm Calm - N/A   Clear
4:00 AM 47 °F 43 °F 82%  in 9 mi Calm Calm - -  
4:55 AM 48.2 °F 44.6 °F 87% 30.18 in - Calm Calm - N/A   Clear
5:00 AM 48 °F 44 °F 83%  in 9 mi Calm Calm - -   Partly Cloudy
5:55 AM 48.2 °F 44.6 °F 87% 30.18 in - Calm Calm - N/A   Clear
6:00 AM 48 °F 45 °F 84%  in 12 mi Calm Calm - -   Mostly Cloudy
6:55 AM 48.2 °F 44.6 °F 87% 30.18 in - Calm Calm - N/A   Clear
7:00 AM 48 °F 45 °F 84%  in 12 mi Calm Calm - -   Mostly Cloudy
7:55 AM 50.0 °F 46.4 °F 87% 30.18 in 6.2 mi Variable 2.3 mph - N/A   Partly Cloudy
8:00 AM 50 °F 46 °F 81%  in 16 mi 2.3 mph - -   Partly Cloudy
8:55 AM 51.8 °F 44.6 °F 76% 30.18 in 6.2 mi Variable 3.5 mph - N/A   Scattered Clouds
9:00 AM 51 °F 45 °F 72%  in 9 mi 3.5 mph - -   Partly Cloudy
9:55 AM 51.8 °F 50.0 °F 94% 30.21 in 6.2 mi SSW 6.9 mph - N/A   Scattered Clouds
10:00 AM 53 °F 49 °F 82%  in 9 mi SSW 6.9 mph - -   Partly Cloudy
10:55 AM 55.4 °F 50.0 °F 82% 30.18 in 6.2 mi SSW 6.9 mph - N/A   Scattered Clouds
11:00 AM 55 °F 50 °F 76%  in 3 mi SSW 6.9 mph - -   Mist
11:55 AM 55.4 °F 50.0 °F 82% 30.21 in 6.2 mi SSW 5.8 mph - N/A   Scattered Clouds
12:00 PM 56 °F 50 °F 74%  in 3 mi SSW 5.8 mph - -   Mist
12:55 PM 57.2 °F 51.8 °F 82% 30.21 in 6.2 mi SW 5.8 mph - N/A   Scattered Clouds
1:00 PM 57 °F 51 °F 74%  in 3 mi SW 11.2 mph - -   Mist
1:55 PM 57.2 °F 50.0 °F 77% 30.21 in 5.0 mi SSW 5.8 mph - N/A   Scattered Clouds
2:00 PM 57 °F 50 °F 70%  in 2 mi SSW 11.2 mph - -   Mist
2:55 PM 57.2 °F 51.8 °F 82% 30.21 in 6.2 mi SW 6.9 mph - N/A   Scattered Clouds
3:00 PM 58 °F 52 °F 75%  in 12 mi SW 13.4 mph - -   Partly Cloudy
3:55 PM 59.0 °F 50.0 °F 72% 30.21 in 6.2 mi SSW 5.8 mph - N/A   Scattered Clouds
4:00 PM 59 °F 50 °F 65%  in 12 mi SSW 11.2 mph - -   Partly Cloudy
4:55 PM 57.2 °F 50.0 °F 77% 30.18 in 6.2 mi SSW 8.1 mph - N/A   Partly Cloudy
5:00 PM 57 °F 49 °F 68%  in 12 mi SSW 8.1 mph - -   Scattered Clouds
5:55 PM 59.0 °F 51.8 °F 77% 30.18 in 6.2 mi SW 10.4 mph - N/A   Scattered Clouds
6:00 PM 59 °F 51 °F 69%  in 6 mi SW 10.4 mph - -   Partly Cloudy
6:55 PM 53.6 °F 50.0 °F 88% 30.18 in 3.1 mi SW 17.3 mph - N/A   Scattered Clouds
7:00 PM 54 °F 51 °F 85%  in 2 mi SW 17.3 mph - -   Mist
7:55 PM 53.6 °F 51.8 °F 94% 30.18 in 0.0 mi SSW 18.4 mph - N/A Fog Fog
8:00 PM 53 °F 52 °F 94%  in 0 mi SSW 18.4 mph - - Fog Heavy Fog
8:55 PM 50.0 °F 50.0 °F 100% 30.18 in 0.0 mi SSW 17.3 mph - N/A Fog Fog
9:00 PM 51 °F 51 °F 99%  in 0 mi SSW 33.6 mph - - Fog Heavy Fog
9:55 PM 50.0 °F 50.0 °F 100% 30.21 in 0.0 mi SW 9.2 mph - N/A Fog Fog
10:55 PM 50.0 °F 50.0 °F 100% 30.24 in 0.0 mi SW 5.8 mph - N/A Fog Fog
11:00 PM 51 °F 51 °F 98%  in 0 mi SW 11.2 mph - - Fog Heavy Fog
11:55 PM 50.0 °F 48.2 °F 94% 30.24 in 0.0 mi SW 4.6 mph - N/A Fog Fog